Location: ????????
(38.4362°N, 22.8767°E)
Time: 03:59:00
(UTC+00:00)

ALOS - Pass Details

Date: 23 April 2024
Orbit: 674 x 675 km, 98.0° (Epoch: 20 May)

Event Time Altitude Azimuth Distance (km) Brightness Sun altitude
Rises 02:02:48 0° 360° (N) 3,037 6.1 -18.2°
Reaches altitude 10° 02:05:17 10° 349° (NNW) 2,117 5.1 -17.8°
Maximum altitude 02:09:11 28° 291° (WNW) 1,270 3.3 -17.2°
Enters shadow 02:10:06 26° 271° (W) 1,329 3.3 -17.0°
